Rbgn^[z[y[W
メイン
   新天体発見情報
     Comet P/2023 M1 (PANSTARRS)
投稿するにはまず登録を

スレッド表示 | 新しいものから 前のトピック | 次のトピック | 下へ
投稿者 スレッド
佐藤裕久
投稿日時: 2023-6-23 0:46
モデレータ
登録日: 2005-6-12
居住地: 日本
投稿: 2687
オンライン
Comet P/2023 M1 (PANSTARRS)

R. Weryk (西オンタリオ大学,物理および天文学科)の通報によると、6月16日、Haleakalaにある
Pan-STARRS1の1.8-m Ritchey-Chretien 反射望遠鏡で得た画像から彗星を発見した。
45-秒4枚のスタック w-バンドサーベイ画像では、1".5のシーイングで、非常に集光した1".9 (半
値全幅:FWHM)の頭部が見え、p.a.130°に向かって点拡散関数(PSF)は非対称である。
Werykは、Maunakeaにある3.6-m Canada-France-Hawaii 望遠鏡で得た、60-秒3枚のgri-バンドフォ
ローアップ画像では、この天体は明らかに彗星に見え、0".75のシーイングで非常に集光した1".1 
(FWHM)の頭部とp.a. 130-245°にわたって3"の広い尾がある。
小惑星センターの"isolated tracklet file"に5月12.5日UT(21.6-21.7等)のHaleakalaにあるPan-
STARRS2 1.8-m Ritchey-Chretien反射望遠鏡と5月24.35-24.36日(20.5-20.8等)1.5-m Mt Lemmon
サーベイ反射望遠鏡による発見前の一夜観測があった。
小惑星センターのPCCP webpageに公表後、佐藤英貴氏(東京都文京区、6月16.66日, 120-秒CCD露出
8枚のスタック, 0.51-m f/6.8 アストログラフ, Siding Spring, NSW, オーストラリア,遠隔操作: 
強く集光した8"のコマが見えるが尾はない。4".9の円形範囲で測定した光度は19.9 等であった)ら
CCD位置観測者によって彗星状と観測された。

彗星機能の報告は次のとおり、

OC   Date        Reporter           Coma    Tail    PA          Exposures
Q62  2023-06-16  H. Sato            8"                            8x120s
G00  2023-06-18  M. Jaeger         15"                           18x100s
T14  2023-06-19  R. Weryk           0".3      3"    130-245       3x60s

発見位置は次のとおり、

     2023 UT             R.A. (2000) Decl.       Mag.
     June 16.40850   16 23 59.43   -11 07 10.8   20.4
          16.42034   16 23 59.04   -11 07 08.3   20.4
          16.43214   16 23 58.66   -11 07 05.7   20.4
          16.44396   16 23 58.28   -11 07 03.1   20.4
          16.51683   16 23 55.93   -11 06 47.4   20.0
          16.51764   16 23 55.90   -11 06 47.2   19.9

MPCの楕円軌道要素、位置推算表は次のとおり、

Orbital elements:
    P/2023 M1 (PANSTARRS)                                                       
Epoch 2023 Feb. 25.0 TT = JDT 2460000.5                                         
T 2023 Dec. 14.42069 TT                                 Rudenko                 
q   2.8258524            (2000.0)            P               Q                  
n   0.05486660     Peri.   79.69914     +0.43367812     +0.89197369             
a   6.8590512      Node   216.86530     -0.88737806     +0.39816960             
e   0.5880112      Incl.   12.28937     -0.15647194     +0.21411189             
P  18.0                                                                         
From 30 observations 2023 Apr. 24-June 19, mean residual 0".1.                  
                                                                                
Ephemeris:
Date    TT    R. A. (2000) Decl.     Delta      r    Elong.  Phase   m1
2023 05 21    16 38 43.8 -13 07 05   2.2522  3.2439   166.2     4.3  20.4
...
2023 06 05    16 30 17.9 -11 53 35   2.1904  3.1909   168.5     3.6  20.2
...
2023 06 13    16 25 47.8 -11 19 52   2.1822  3.1636   162.0     5.7  20.2
...
2023 06 19    16 22 41.3 -10 58 13   2.1870  3.1437   156.2     7.5  20.2
2023 06 20    16 22 12.3 -10 54 57   2.1887  3.1405   155.3     7.8  20.2
2023 06 21    16 21 43.9 -10 51 47   2.1906  3.1372   154.3     8.1  20.2
...
2023 06 27    16 19 10.0 -10 35 04   2.2070  3.1179   148.3     9.9  20.2
...
2023 07 05    16 16 35.8 -10 18 58   2.2410  3.0930   140.4    12.1  20.2
...
2023 07 20    16 14 56.8 -10 08 10   2.3366  3.0486   126.1    15.6  20.2

(MPEC 2023-M65、CBET 5273)

スレッド表示 | 新しいものから 前のトピック | 次のトピック | トップ

投稿するにはまず登録を
 
© 1999 Tsutomu Seki.